Location: Newark
(41.6500°N, 71.4833°W)
Time: 11:37:09
(UTC+00:00)

Courier 1B - Pass Details

Date: 22 January 2020
Orbit: 962 x 1209 km, 28.3° (Epoch: 22 February)

Event Time Altitude Azimuth Distance (km) Brightness Sun altitude
Rises 07:37:42 0° 212° (SSW) 3,898 - -49.7°
Reaches altitude 10° 07:41:37 10° 192° (SSW) 2,993 - -49.0°
Maximum altitude 07:45:53 16° 157° (SSE) 2,601 - -48.3°
Exits shadow 07:49:25 12° 127° (SE) 2,936 10.2 -47.6°
Drops below altitude 10° 07:50:15 10° 121° (ESE) 3,088 10.4 -47.5°
Sets 07:54:23 0° 102° (ESE) 4,084 11.3 -46.8°
